Location: Cahas Mountain Overlook
(37.0833°N, 80.1000°W)
Time: 22:17:30
(UTC-05:00)

deb Explorer IX - All Passes

Search period start: 22 January 2022 00:00
Search period end: 01 February 2022 00:00
Orbit: 544 x 1082 km, 38.8° (Epoch: 22 January)

Date Brightness Start Highest point End Pass type
(mag) Time Alt. Az. Time Alt. Az. Time Alt. Az.
22 Jan - 12:56:36 10° SSW 13:00:04 22° SSE 13:03:19 10° E daylight
22 Jan - 14:42:04 10° WSW 14:46:16 76° SSE 14:50:21 10° ENE daylight
22 Jan - 16:28:48 10° W 16:32:51 68° N 16:37:02 10° E daylight
22 Jan - 18:15:20 10° WNW 18:19:27 73° SSW 18:23:56 10° ESE visible
22 Jan - 20:02:18 10° W 20:05:43 22° SSW 20:09:28 10° SSE visible
23 Jan - 12:30:43 10° SSW 12:34:17 22° SSE 12:37:35 10° E daylight
23 Jan - 14:16:13 10° WSW 14:20:31 75° SSE 14:24:35 10° ENE daylight
23 Jan - 16:03:00 10° W 16:07:05 68° N 16:11:13 10° E daylight
23 Jan - 17:49:35 10° WNW 17:53:41 73° SSW 17:58:02 10° ESE daylight
23 Jan - 19:36:35 10° W 19:39:55 22° SSW 19:43:32 10° SSE visible
24 Jan - 12:04:47 10° SSW 12:08:28 22° SSE 12:11:52 10° E daylight
24 Jan - 13:50:19 10° WSW 13:54:44 74° SSE 13:58:50 10° ENE daylight
24 Jan - 15:37:11 10° W 15:41:19 68° N 15:45:24 10° E daylight
24 Jan - 17:23:50 10° WNW 17:27:54 74° SSW 17:32:09 10° ESE daylight
24 Jan - 19:10:51 10° W 19:14:06 22° SSW 19:17:36 10° SSE visible
25 Jan - 11:38:48 10° SSW 11:42:38 23° SSE 11:46:08 10° E daylight
25 Jan - 13:24:23 10° WSW 13:28:56 73° SSE 13:33:04 10° ENE daylight
25 Jan - 15:11:19 10° W 15:15:32 68° N 15:19:35 10° E daylight
25 Jan - 16:58:02 10° WNW 17:02:06 75° SSW 17:06:17 10° ESE daylight
25 Jan - 18:45:05 10° W 18:48:18 22° SSW 18:51:41 10° SSE visible
26 Jan - 11:12:48 10° SSW 11:16:47 23° SSE 11:20:23 10° E daylight
26 Jan - 12:58:25 10° WSW 13:03:07 72° SSE 13:07:19 10° ENE daylight
26 Jan - 14:45:25 10° W 14:49:44 68° N 14:53:47 10° E daylight
26 Jan - 16:32:13 10° WNW 16:36:18 76° SSW 16:40:26 10° ESE daylight
26 Jan - 18:19:18 10° W 18:22:29 22° SSW 18:25:48 10° SSE visible
27 Jan - 10:46:45 10° SSW 10:50:55 23° SSE 10:54:39 10° E daylight
27 Jan - 12:32:25 10° WSW 12:37:16 72° SSE 12:41:34 10° ENE daylight
27 Jan - 14:19:29 10° W 14:23:54 69° N 14:28:00 10° E daylight
27 Jan - 16:06:21 10° WNW 16:10:30 78° SSW 16:14:35 10° ESE daylight
27 Jan - 17:53:29 10° W 17:56:40 22° SSW 17:59:56 10° SSE daylight
28 Jan - 10:20:42 10° SSW 10:25:01 24° SSE 10:28:53 10° E daylight
28 Jan - 12:06:22 10° WSW 12:11:24 71° SSE 12:15:48 10° ENE daylight
28 Jan - 13:53:30 10° W 13:58:04 69° N 14:02:12 10° E daylight
28 Jan - 15:40:28 10° WNW 15:44:41 79° SSW 15:48:45 10° ESE daylight
28 Jan - 17:27:38 10° W 17:30:50 22° SSW 17:34:05 10° SSE daylight
29 Jan - 09:54:35 10° SSW 09:59:05 24° SSE 10:03:06 10° E daylight
29 Jan - 11:40:18 10° WSW 11:45:31 71° SSE 11:50:02 10° ENE daylight
29 Jan - 13:27:30 10° W 13:32:13 70° N 13:36:25 10° E daylight
29 Jan - 15:14:32 10° WNW 15:18:52 80° SSW 15:22:56 10° ESE daylight
29 Jan - 17:01:44 10° W 17:05:00 23° SSW 17:08:14 10° SSE daylight
30 Jan - 09:28:28 10° SSW 09:33:08 25° SSE 09:37:18 10° E daylight
30 Jan - 11:14:11 10° WSW 11:19:36 70° SSE 11:24:15 10° ENE daylight
30 Jan - 13:01:27 10° W 13:06:20 71° N 13:10:37 10° E daylight
30 Jan - 14:48:34 10° WNW 14:53:00 82° SSW 14:57:06 10° ESE daylight
30 Jan - 16:35:50 10° W 16:39:09 23° SSW 16:42:25 10° SSE daylight
31 Jan - 09:02:19 10° SSW 09:07:09 25° SSE 09:11:28 10° E daylight
31 Jan - 10:48:03 10° WSW 10:53:40 70° SSE 10:58:26 10° ENE daylight
31 Jan - 12:35:22 10° W 12:40:25 71° N 12:44:50 10° E daylight
31 Jan - 14:22:33 10° WNW 14:27:08 83° SSW 14:31:17 10° ESE daylight
31 Jan - 16:09:52 10° W 16:13:17 24° SSW 16:16:36 10° SSE daylight
